Clermont Ferrand, France

12:15 AM CEST on September 25, 2016 (GMT +0200)
Clermont-Ferrand / Auvergne

Weather History for LFLC - October, 2012

Change the Weather History Date:

Tuesday, October 30, 2012

  Actual Average Record
Temperature  
Mean Temperature 41 °F -  
Max Temperature 54 °F 58 °F 73 °F (1999)
Min Temperature 28 °F 41 °F 17 °F (1997)
Degree Days  
Heating Degree Days 24    
Moisture  
Dew Point 27 °F    
Average Humidity 65    
Maximum Humidity 93    
Minimum Humidity 22    
Precipitation  
Precipitation 0.00 in - - ()
Sea Level Pressure  
Sea Level Pressure 29.76 in    
Wind  
Wind Speed 3 mph ()    
Max Wind Speed 9 mph    
Max Gust Speed -    
Visibility 10.1 miles    
Events      
Averages and records for this station are not official NWS values.
T = Trace of Precipitation, MM = Missing Value Source: Averaged Metar Reports

Daily Weather History Graph

Daily Weather History Graph

Search for Another Location

Airport or City:

Trip Planner

Search our weather history database for the weather conditions in past years. The results will help you decide how hot, cold, wet, or windy it might be!

Date:

Astronomy

Oct. 30, 2012 Rise Set
Actual Time 7:25 AM CET 5:36 PM CET
Civil Twilight 6:54 AM CET 6:07 PM CET
Nautical Twilight 6:18 AM CET 6:42 PM CET
Astronomical Twilight 5:44 AM CET 7:16 PM CET
Moon 5:51 PM CET (10/30) 8:00 AM CET (10/30)
Length of Visible Light 11h 13m
Length of Day
10h 11m
Full, 100% of the Moon is Illuminated
Oct 30
Full
Nov 7
Last Quarter
Nov 13
New
Nov 20
First Quarter
Nov 28
Full

Hourly Weather History & Observations

Time (CET) Temp. Windchill Dew Point Humidity Pressure Visibility Wind Dir Wind Speed Gust Speed Precip Events Conditions
12:00 AM 32.0 °F - 30.2 °F 93% 29.92 in - Calm Calm - N/A   Clear
12:30 AM 32.0 °F - 28.4 °F 87% 29.89 in - Calm Calm - N/A   Clear
1:00 AM 33 °F - 30 °F 84% 29.95 in 12 mi SE 3.5 mph - -   Clear
1:00 AM 32.0 °F 28.7 °F 30.2 °F 93% 29.89 in - SE 3.5 mph - N/A   Clear
1:30 AM 33.8 °F 30.8 °F 30.2 °F 87% 29.89 in 6.2 mi SE 3.5 mph - N/A   Unknown
2:00 AM 33.8 °F - 32.0 °F 93% 29.86 in 6.2 mi Variable 2.3 mph - N/A   Unknown
2:30 AM 33.8 °F 27.0 °F 30.2 °F 87% 29.86 in 6.2 mi SSE 8.1 mph - N/A   Unknown
3:00 AM 33.8 °F 27.0 °F 30.2 °F 87% 29.86 in 6.2 mi SSE 8.1 mph - N/A   Unknown
3:30 AM 33.8 °F 29.6 °F 30.2 °F 87% 29.83 in 6.2 mi SSE 4.6 mph - N/A   Unknown
4:00 AM 32.0 °F 27.5 °F 28.4 °F 87% 29.80 in - Variable 4.6 mph - N/A   Clear
4:30 AM 32.0 °F 25.6 °F 28.4 °F 87% 29.80 in - SE 6.9 mph - N/A   Clear
5:00 AM 32.0 °F 25.6 °F 28.4 °F 87% 29.80 in - South 6.9 mph - N/A   Clear
5:30 AM 30.2 °F 21.9 °F 28.4 °F 93% 29.80 in - SSW 9.2 mph - N/A   Clear
6:00 AM 30.2 °F 26.7 °F 26.6 °F 86% 29.80 in - SSE 3.5 mph - N/A   Clear
6:30 AM 30.2 °F - 28.4 °F 93% 29.80 in - Variable 2.3 mph - N/A   Clear
7:00 AM 28 °F - 26 °F 86% 29.87 in 19 mi WSW 4.6 mph - -   Partly Cloudy
7:00 AM 28.4 °F 23.3 °F 24.8 °F 86% 29.80 in - WSW 4.6 mph - N/A   Clear
7:30 AM 28.4 °F 23.3 °F 26.6 °F 93% 29.80 in - SW 4.6 mph - N/A   Clear
8:00 AM 28.4 °F - 26.6 °F 93% 29.80 in - Calm Calm - N/A   Clear
8:30 AM 30.2 °F - 28.4 °F 93% 29.80 in - Calm Calm - N/A   Clear
9:00 AM 32.0 °F 27.5 °F 28.4 °F 87% 29.80 in - WSW 4.6 mph - N/A   Clear
9:30 AM 35.6 °F 32.8 °F 28.4 °F 75% 29.80 in - South 3.5 mph - N/A   Clear
10:00 AM 39.2 °F 35.9 °F 26.6 °F 61% 29.80 in - South 4.6 mph - N/A   Clear
10:30 AM 41.0 °F 35.8 °F 28.4 °F 61% 29.80 in - South 8.1 mph - N/A   Clear
11:00 AM 44.6 °F 41.4 °F 28.4 °F 53% 29.77 in - South 5.8 mph - N/A   Clear
11:30 AM 44.6 °F 40.2 °F 24.8 °F 46% 29.77 in - SE 8.1 mph - N/A   Clear
12:00 PM 46.4 °F 42.9 °F 26.6 °F 46% 29.77 in - ESE 6.9 mph - N/A   Clear
12:30 PM 50.0 °F - 24.8 °F 37% 29.74 in - Variable 2.3 mph - N/A   Clear
1:00 PM 51 °F - 24 °F 22% 29.75 in 25 mi SW 1.2 mph - -   Clear
1:00 PM 51.8 °F - 24.8 °F 35% 29.74 in - Variable 1.2 mph - N/A   Clear
1:30 PM 53.6 °F - 23.0 °F 30% 29.71 in - Variable 3.5 mph - N/A   Clear
2:00 PM 53.6 °F - 23.0 °F 30% 29.71 in - Variable 2.3 mph - N/A   Clear
2:30 PM 53.6 °F - 23.0 °F 30% 29.68 in - North 3.5 mph - N/A   Clear
3:00 PM 53.6 °F - 24.8 °F 33% 29.68 in - Variable 2.3 mph - N/A   Clear
3:30 PM 53.6 °F - 24.8 °F 33% 29.68 in - Variable 3.5 mph - N/A   Clear
4:00 PM 53.6 °F - 23.0 °F 30% 29.68 in - North 3.5 mph - N/A   Clear
4:30 PM 51.8 °F - 21.2 °F 30% 29.68 in - Variable 3.5 mph - N/A   Clear
5:00 PM 50.0 °F - 24.8 °F 37% 29.65 in - North 3.5 mph - N/A   Clear
5:30 PM 46.4 °F 45.2 °F 24.8 °F 43% 29.65 in - North 3.5 mph - N/A   Clear
6:00 PM 44.6 °F - 24.8 °F 46% 29.65 in - North 1.2 mph - N/A   Clear
6:30 PM 42.8 °F - 26.6 °F 53% 29.68 in - Variable 2.3 mph - N/A   Clear
7:00 PM 40 °F - 26 °F 45% 29.71 in 19 mi West 3.5 mph - -   Clear
7:00 PM 39.2 °F 37.0 °F 26.6 °F 61% 29.68 in - West 3.5 mph - N/A   Clear
7:30 PM 39.2 °F 35.9 °F 24.8 °F 56% 29.68 in - WSW 4.6 mph - N/A   Clear
8:00 PM 37.4 °F - 24.8 °F 60% 29.68 in - Variable 2.3 mph - N/A   Clear
8:30 PM 37.4 °F 34.9 °F 26.6 °F 65% 29.68 in - WSW 3.5 mph - N/A   Clear
9:00 PM 35.6 °F - 26.6 °F 70% 29.68 in - Calm Calm - N/A   Clear
9:30 PM 37.4 °F 33.8 °F 24.8 °F 60% 29.68 in - West 4.6 mph - N/A   Clear
10:00 PM 33.8 °F 29.6 °F 24.8 °F 70% 29.68 in - South 4.6 mph - N/A   Clear
10:30 PM 37.4 °F 33.8 °F 26.6 °F 65% 29.65 in - South 4.6 mph - N/A   Clear
11:00 PM 37.4 °F 32.1 °F 24.8 °F 60% 29.65 in - South 6.9 mph - N/A   Clear
11:30 PM 33.8 °F 27.7 °F 24.8 °F 70% 29.65 in - SE 6.9 mph - N/A   Clear